Wind_Speed
52 49 47 47 49 54 62 68 70 68 65 65 66 65 64 66 70 76 80 83 89 93 92 94 76 62 53 43 38 36 34 37 38 37 35 35 35 35 37 38 40 40 42
46 51 54 55 62 62 67 66 66 64 63 62 65 63 65 67 72 76 77 84 88 91 92 86 69 60 53 45 41 37 37 36 38 44 44 43 42 45 46 47 47 47 49
51 62 68 68 68 61 61 62 61 60 63 63 62 62 66 67 73 76 79 83 87 87 86 77 67 58 54 48 42 38 37 37 36 36 41 45 47 50 52 52 52 50 49
48 57 59 56 56 57 59 58 58 61 63 60 61 62 66 70 75 75 81 83 85 88 89 78 68 60 55 52 47 43 41 40 40 37 38 39 39 42 44 45 47 46 47
56 62 65 72 67 58 57 56 58 62 59 55 58 64 65 72 75 75 81 85 84 89 93 84 74 63 56 52 49 47 44 44 45 42 41 40 40 42 43 43 46 46 45
56 63 71 63 60 56 61 59 57 60 53 52 56 63 67 74 73 79 82 84 86 92 97 91 82 70 61 56 51 46 45 46 49 49 47 46 46 46 46 45 45 44 43
55 62 58 57 57 57 57 56 58 59 49 52 57 63 69 73 74 78 82 85 87 92 97 104 90 74 61 54 51 49 47 46 46 48 50 48 46 47 47 45 43 40 39
46 50 53 55 56 54 50 47 55 50 50 56 57 64 71 70 76 80 81 86 89 95 103 110 93 78 66 56 52 51 49 48 48 49 49 51 49 48 44 42 39 34 34
51 57 62 64 55 56 56 54 52 48 55 54 58 68 70 72 76 79 81 86 93 96 105 108 87 75 68 64 60 59 59 59 58 57 56 52 47 42 37 35 32 28 27
48 52 54 48 52 54 58 48 49 52 59 51 60 66 71 75 75 77 82 88 95 98 109 104 84 73 65 61 60 60 61 61 61 56 51 47 40 34 30 28 24 21 17
42 48 51 46 50 50 42 51 52 56 55 53 61 69 75 74 74 82 84 91 99 106 110 99 82 75 68 65 64 64 63 58 54 49 42 35 29 23 21 19 18 14 10
43 47 52 46 47 51 50 51 52 56 53 51 61 69 73 73 74 83 87 95 101 108 109 97 83 76 72 70 68 64 57 50 43 36 30 22 17 13 12 13 13 13 17
45 49 51 44 48 46 49 51 55 59 49 54 65 72 70 71 76 84 89 96 103 109 109 96 84 77 71 71 68 61 51 43 35 28 21 13 8 6 8 11 14 19 20
40 36 28 34 42 44 47 54 49 46 48 54 62 67 67 71 74 84 90 97 103 108 99 85 80 75 72 67 61 52 45 37 29 21 12 6 2 5 8 12 20 23 20
39 40 24 31 37 41 47 50 45 46 49 56 66 61 64 69 78 85 91 96 102 106 95 82 77 74 69 61 54 47 37 30 21 13 6 2 2 5 11 18 23 21 18
34 35 36 34 43 51 50 51 48 48 48 62 59 59 65 72 79 86 92 99 106 105 90 82 76 70 63 56 47 38 31 24 16 9 4 3 5 11 17 21 21 18 15
38 29 24 35 42 48 53 53 47 42 51 52 55 60 64 74 83 90 96 103 108 100 85 79 74 67 58 49 40 33 26 18 11 7 6 8 11 16 18 19 17 15 11
45 41 38 35 41 48 51 42 37 45 49 51 56 62 67 78 84 92 98 104 108 94 82 76 69 59 50 41 34 27 19 12 8 8 10 12 14 15 15 14 11 11 11
42 44 49 40 36 32 32 34 41 46 46 50 57 63 74 80 87 94 102 107 101 87 78 71 61 50 42 33 27 20 13 9 10 10 12 13 13 12 10 8 7 9 11
39 35 33 29 31 27 33 40 41 43 47 50 59 68 79 88 92 95 100 102 92 76 71 64 52 43 34 27 20 14 9 9 10 10 11 10 8 7 5 5 7 10 14
31 27 29 30 23 26 33 32 36 43 51 55 64 72 80 83 90 94 98 97 80 74 68 57 45 36 28 22 16 9 7 7 8 7 6 6 3 3 6 8 11 13 16
22 29 30 29 23 28 33 36 40 46 51 59 65 72 77 85 91 93 102 92 76 69 62 49 39 29 24 18 11 7 5 4 4 4 3 1 3 5 8 11 14 17 20
27 32 30 25 25 29 34 37 39 42 47 57 66 72 80 87 89 95 99 81 69 63 54 42 31 25 20 14 8 6 6 5 3 2 3 5 8 10 13 15 17 18 19
30 29 27 23 24 28 34 40 45 50 54 59 66 73 80 84 91 99 92 73 64 58 46 35 27 22 16 10 8 8 8 7 7 6 8 10 13 14 15 16 17 19 22
18 18 20 21 26 28 34 40 47 49 57 63 70 76 82 89 91 97 81 67 59 51 39 30 24 17 11 8 9 9 10 10 10 11 12 13 15 16 17 18 18 19 19
19 16 19 21 23 30 35 41 49 48 56 65 72 77 85 88 95 88 71 59 54 42 32 25 18 13 10 9 10 11 11 13 15 16 17 16 16 16 15 15 13 12 13
Wind_Direction
283 283 285 293 296 299 304 307 307 308 312 313 313 312 317 320 324 324 326 326 328 331 331 333 333 329 325 321 321 313 298 282 281 282 282 281 278 279 283 284 283 281 278
274 281 288 292 302 302 302 305 307 310 311 312 311 313 319 324 324 326 325 327 331 332 332 332 334 329 326 321 319 318 310 302 289 284 282 281 280 280 280 280 280 279 277
275 285 293 293 298 301 303 304 307 307 309 312 311 316 320 324 325 326 326 328 332 336 338 337 336 330 328 323 316 315 309 305 298 293 288 285 284 283 282 282 281 280 278
298 296 298 301 304 304 304 303 305 306 310 310 313 315 320 323 325 325 325 329 332 337 341 338 336 333 331 326 317 312 310 307 302 298 293 289 289 287 285 285 282 281 281
290 296 300 305 304 301 299 300 302 305 307 311 316 317 320 323 325 323 326 331 334 339 343 339 335 333 329 325 320 311 306 302 297 295 292 292 292 292 291 287 285 284 282
293 294 299 298 300 299 300 300 301 305 307 313 316 317 320 321 323 323 328 332 335 341 343 341 337 333 330 324 320 314 308 303 300 299 296 294 293 291 291 290 286 285 283
281 285 288 294 296 296 299 301 302 305 311 317 315 317 318 321 322 324 329 331 336 341 341 344 338 334 329 323 319 317 312 305 298 295 295 293 291 290 291 290 286 285 284
275 277 282 289 290 292 302 307 300 307 316 317 316 317 317 321 323 328 330 333 338 340 340 341 338 336 333 331 325 321 316 310 305 302 301 300 297 293 289 284 281 279 278
274 273 279 283 286 291 293 287 296 307 316 315 316 315 319 321 324 329 330 336 337 339 340 341 337 336 335 334 330 326 322 318 314 309 306 303 299 293 284 274 272 269 271
263 266 272 284 283 287 293 290 295 304 310 311 314 318 322 322 327 332 332 334 337 339 341 340 337 336 334 331 327 323 319 317 314 311 309 305 301 291 274 266 259 256 264
257 271 276 273 279 284 290 286 296 299 307 312 314 317 320 323 328 331 331 332 336 337 341 339 337 335 333 331 328 325 322 319 315 312 308 302 295 283 267 255 242 236 216
260 265 268 273 276 278 280 287 295 297 302 310 315 316 319 322 327 329 332 333 335 337 339 339 337 336 334 331 330 327 325 322 318 315 311 304 295 276 252 227 212 188 173
259 260 269 277 277 276 286 290 287 295 301 313 313 316 319 324 327 330 331 333 335 339 339 338 336 334 334 331 331 329 328 326 327 324 318 311 291 247 212 193 177 171 165
252 258 267 280 282 290 286 286 292 299 308 306 309 316 322 328 330 329 329 335 337 337 338 337 335 333 335 334 332 332 333 333 332 332 326 312 250 189 179 167 165 163 164
234 248 222 253 272 287 287 292 292 300 306 309 313 317 327 326 329 329 329 332 335 338 338 338 336 335 334 335 337 337 337 339 341 342 343 348 164 166 160 159 163 165 171
233 232 245 255 270 273 282 293 292 298 310 308 315 321 327 329 329 328 331 335 336 338 338 338 336 336 337 339 339 342 345 347 350 355 25 79 127 144 152 161 165 173 184
213 216 231 243 250 260 274 287 293 306 310 315 317 325 327 330 330 331 333 336 336 338 338 337 337 339 340 341 343 348 352 353 1 25 73 106 129 143 155 165 174 184 201
210 217 225 240 259 261 275 286 300 310 310 312 321 326 330 329 331 331 334 336 337 338 338 338 338 339 340 343 348 354 360 10 39 73 99 116 132 146 159 171 190 211 232
209 215 225 243 259 272 289 310 309 301 308 317 324 329 330 331 331 333 335 335 339 337 337 337 338 341 343 348 354 1 12 41 71 90 105 119 134 148 163 190 222 243 257
209 223 231 256 273 287 309 302 295 308 315 319 329 329 328 330 329 333 333 335 336 336 337 338 342 344 346 352 359 8 33 63 85 101 110 125 145 165 193 244 264 275 288
215 238 237 261 273 290 298 295 307 310 315 321 321 320 321 323 327 328 333 336 338 338 338 340 344 346 350 356 2 18 49 78 94 106 125 137 161 235 263 286 295 300 301
227 240 246 256 270 286 285 292 301 304 310 320 316 316 320 325 328 331 334 336 336 338 339 342 345 349 352 357 4 28 49 67 83 100 138 175 285 291 293 298 304 307 309
227 233 245 256 267 277 297 300 302 309 319 320 317 320 323 327 330 332 335 336 337 338 341 343 346 350 351 355 6 20 26 27 25 3 318 300 299 308 312 312 311 312 317
221 233 243 264 272 288 308 315 315 316 321 322 320 321 323 326 330 334 336 335 337 340 342 344 345 348 349 359 14 22 25 20 4 338 317 318 321 320 319 319 318 322 325
227 244 268 274 285 302 314 308 309 315 320 318 320 321 323 325 329 334 335 335 338 342 344 345 348 353 3 23 32 32 24 13 0 351 342 336 334 330 326 325 325 323 326
236 252 277 277 280 285 299 304 305 312 315 315 318 318 322 326 329 334 333 336 341 343 346 351 3 15 30 37 36 25 14 6 357 346 339 339 342 346 350 348 347 350 356
Height
10743 10743 10739 10735 10731 10728 10725 10722 10718 10712 10703 10696 10689 10678 10668 10659 10649 10635 10622 10608 10593 10577 10561 10544 10527 10512 10503 10495 10488 10482 10477 10472 10467 10463 10462 10459 10456 10453 10450 10448 10446 10445 10442
10734 10734 10730 10725 10722 10717 10714 10710 10703 10698 10691 10684 10678 10668 10657 10648 10637 10626 10613 10601 10586 10567 10549 10533 10519 10504 10493 10485 10476 10471 10465 10460 10458 10452 10450 10447 10445 10441 10437 10434 10432 10430 10427
10726 10723 10720 10717 10713 10705 10702 10696 10692 10687 10679 10674 10667 10658 10649 10640 10626 10614 10602 10591 10576 10557 10539 10522 10509 10496 10484 10476 10468 10461 10454 10449 10445 10442 10436 10432 10430 10425 10421 10418 10414 10412 10410
10719 10712 10706 10704 10702 10695 10691 10686 10681 10674 10669 10663 10656 10647 10640 10629 10617 10605 10592 10579 10565 10547 10529 10513 10500 10488 10474 10463 10455 10449 10443 10437 10431 10428 10424 10419 10416 10412 10407 10403 10397 10396 10393
10705 10700 10696 10697 10691 10687 10683 10677 10672 10667 10661 10653 10646 10638 10632 10621 10609 10596 10584 10569 10554 10537 10519 10502 10488 10476 10465 10453 10443 10436 10430 10425 10418 10413 10409 10404 10400 10395 10392 10389 10382 10379 10377
10693 10687 10687 10686 10681 10677 10673 10668 10662 10658 10653 10648 10641 10630 10622 10613 10600 10587 10573 10559 10544 10525 10509 10491 10476 10462 10450 10438 10430 10423 10416 10410 10401 10396 10391 10387 10383 10379 10375 10371 10366 10363 10361
10684 10679 10679 10675 10670 10666 10665 10658 10651 10649 10645 10639 10632 10623 10614 10603 10591 10578 10565 10550 10535 10516 10496 10480 10460 10449 10437 10427 10417 10408 10401 10395 10390 10383 10375 10371 10368 10362 10357 10353 10349 10346 10343
10676 10669 10665 10664 10659 10657 10657 10648 10641 10640 10636 10630 10622 10614 10605 10593 10582 10568 10555 10539 10524 10508 10484 10465 10446 10430 10418 10410 10402 10393 10386 10379 10372 10364 10356 10349 10346 10341 10338 10335 10333 10332 10329
10664 10659 10656 10656 10649 10647 10648 10641 10635 10633 10628 10622 10614 10606 10594 10583 10573 10560 10544 10529 10513 10498 10477 10455 10437 10422 10407 10394 10386 10376 10367 10358 10349 10342 10334 10326 10322 10319 10318 10317 10317 10318 10318
10652 10650 10644 10646 10641 10640 10638 10632 10629 10627 10622 10614 10608 10598 10585 10574 10563 10551 10535 10518 10502 10491 10469 10446 10426 10413 10401 10391 10379 10368 10356 10345 10332 10322 10314 10306 10303 10302 10301 10303 10305 10308 10309
10641 10641 10641 10636 10634 10632 10632 10625 10623 10621 10615 10608 10600 10590 10577 10566 10554 10540 10525 10508 10490 10470 10454 10435 10416 10401 10387 10377 10365 10354 10341 10328 10317 10307 10300 10294 10291 10290 10290 10293 10296 10300 10303
10637 10635 10631 10628 10624 10623 10622 10617 10616 10613 10608 10601 10592 10581 10569 10557 10546 10532 10515 10497 10480 10462 10439 10421 10402 10387 10374 10361 10350 10336 10324 10314 10304 10296 10289 10285 10282 10282 10283 10287 10290 10294 10299
10625 10622 10622 10622 10619 10615 10613 10611 10608 10605 10600 10593 10584 10573 10562 10549 10536 10521 10505 10489 10468 10445 10426 10405 10390 10377 10365 10349 10333 10320 10310 10301 10292 10285 10281 10279 10278 10278 10280 10283 10287 10293 10299
10613 10615 10617 10616 10612 10606 10604 10602 10600 10595 10591 10585 10576 10568 10554 10541 10528 10514 10497 10478 10460 10445 10424 10403 10382 10367 10352 10338 10325 10312 10300 10291 10285 10280 10278 10276 10276 10277 10279 10282 10288 10294 10299
10600 10603 10605 10605 10601 10599 10597 10594 10592 10588 10583 10574 10568 10559 10548 10535 10520 10505 10490 10474 10453 10430 10409 10392 10374 10358 10342 10328 10315 10304 10296 10288 10283 10279 10278 10277 10277 10278 10280 10284 10290 10296 10300
10592 10594 10596 10597 10596 10591 10590 10589 10584 10580 10574 10565 10558 10548 10537 10524 10511 10497 10479 10460 10438 10416 10397 10382 10366 10351 10335 10322 10311 10302 10293 10287 10283 10281 10279 10278 10279 10280 10284 10288 10293 10298 10302
10582 10584 10587 10589 10587 10586 10584 10581 10578 10571 10565 10558 10549 10539 10528 10514 10500 10483 10465 10448 10429 10406 10388 10372 10357 10340 10327 10317 10307 10299 10292 10288 10285 10283 10281 10281 10282 10284 10288 10292 10296 10299 10302
10570 10576 10577 10578 10579 10578 10578 10574 10569 10564 10558 10550 10540 10531 10519 10505 10490 10474 10455 10435 10413 10394 10379 10364 10351 10337 10324 10314 10306 10299 10295 10291 10289 10287 10285 10286 10288 10290 10293 10296 10299 10301 10301
10562 10567 10571 10573 10574 10571 10568 10563 10560 10556 10550 10542 10532 10520 10510 10496 10479 10463 10444 10425 10405 10388 10375 10361 10346 10333 10323 10314 10307 10302 10299 10296 10293 10292 10292 10292 10294 10296 10298 10299 10300 10300 10300
10555 10561 10565 10567 10566 10563 10559 10556 10552 10544 10537 10532 10522 10509 10497 10481 10467 10454 10438 10422 10405 10387 10372 10356 10341 10330 10322 10315 10309 10306 10303 10301 10299 10298 10298 10298 10299 10300 10300 10300 10299 10298 10297
10549 10554 10556 10558 10559 10555 10555 10548 10544 10538 10526 10520 10514 10505 10494 10480 10467 10452 10434 10412 10392 10377 10364 10350 10338 10329 10322 10317 10312 10309 10307 10305 10304 10303 10302 10302 10302 10301 10301 10299 10298 10296 10293
10542 10545 10547 10549 10550 10549 10548 10545 10539 10532 10522 10515 10506 10497 10484 10471 10456 10438 10420 10402 10386 10373 10360 10347 10337 10330 10324 10319 10315 10312 10310 10309 10307 10306 10305 10304 10303 10302 10300 10297 10295 10292 10289
10534 10538 10541 10543 10543 10542 10541 10536 10531 10525 10519 10508 10497 10485 10474 10461 10446 10431 10414 10395 10381 10368 10355 10344 10336 10331 10325 10321 10317 10315 10313 10311 10310 10308 10307 10305 10303 10300 10298 10294 10291 10287 10284
10529 10533 10536 10536 10536 10536 10531 10526 10519 10513 10507 10501 10491 10481 10468 10454 10440 10423 10405 10390 10377 10363 10352 10343 10336 10331 10327 10323 10320 10317 10315 10313 10311 10309 10307 10304 10302 10298 10294 10290 10287 10283 10279
10523 10527 10529 10530 10529 10527 10523 10518 10512 10507 10499 10489 10481 10470 10457 10445 10432 10416 10398 10385 10372 10359 10349 10342 10336 10331 10328 10325 10323 10320 10318 10315 10312 10310 10307 10303 10299 10295 10291 10288 10284 10280 10276
10518 10523 10524 10523 10521 10518 10514 10510 10505 10501 10491 10482 10473 10462 10451 10437 10423 10408 10393 10380 10367 10357 10349 10342 10337 10334 10331 10328 10326 10323 10320 10316 10313 10310 10305 10301 10297 10293 10289 10286 10282 10278 10274